"Pseudo-MPEC" for P21D8zY

Created 2023 Jan 26 6:22:15 UT using Find_Orb

Click here for an explanation of pseudo-MPECs

 
 Astrometry: 
     P21D8zY* C2023 01 22@Bu:DLOV?LStmVIpXaMoLBkEg0Tl623wW#/u3N!f#oCLeU4mJ`ipF52
     P21D8zY  C2023 01 22_VnHpp4)G;`JJ5]y7IV,F(K!pW.vpAstrometrydgLZUV'ppQA,hF52
     P21D8zY  C2023 01 22tClP)82T:)Mt:5p0SLutx/P.k%vu1eo.Wyko2ycredacted;oL]/F52
     P21D8zY  C2023 01 22;-sIYnC2XM@INyE#ddsrALck8cT-ilp+Sj.38+ypYssassd]]70%F52
     P21D8zY  C2023 01 22MpVj$4J4s$$'kq2jgE=;,64KNKb^Pe7V%UjOC=SDDsVh:,UbvC3JF52
     P21D8zY  C2023 01 22oPbyV(G8Y\bFyC:uS]5UCEr?clickB+D7[`7lhk9ZJp2p;(r^wGlF52
     P21D8zY  C2023 01 224\!W[sP$YN;ni,:1QTl!$.hNJJFbGmT[)Vle)CCbK8W:yqLP%,]LF52
     P21D8zY 3C2023 01 23t1vD19F$m[b#N'-KJovb7;RclW[xhereo-L^J8wppDRXH9U+c$'_T14
     P21D8zY 3C2023 01 23rA75gHpe=$kx6m2,7d?_DXnOvM1Vffor)QW??%5^wmPucleVXqnwT14
     P21D8zY 3C2023 01 23j-uIKy)6Uo?,L^%+Nd\uexplanationn1_:vorHco8qk;Mpn0,#%T14

Station data:
(F52) Pan-STARRS 2, Haleakala  (N20.707382 W156.255910)  US/Hawaii.
   Observers J. Bulger, T. Dukes, T. Lowe, A. Schultz, M. Willman. Measurers
   K. Chambers, S. Chastel, T. de Boer, L. Denneau, J. Fairlamb, H.
   Flewelling, M. Huber, C.-C. Lin, E. Magnier, Y. Ramanjooloo, R. Wainscoat,
   R. Weryk. 1.8-m Ritchey-Chrétien + CCD.
(T14) Mauna Kea-UH/Tholen NEO Follow-Up (CFHT)  (N19.825252 W155.468876)
   US/Hawaii. 3.6-m Canada-France-Hawaii Telescope.

Orbital elements:  P21D8zY
   Perihelion 2022 Dec 7.49385 +/- 0.0148 TT = 11:51:08 (JD 2459920.99385)
Epoch 2023 Jan 23.0 TT = JDT 2459967.5   Earth MOID: 0.0015   Ve: 0.0222
M  16.69736383 +/- 0.038            Ma: 0.0477                   AutoNEOCP
n   0.35903562 +/- 0.000708         Peri.  282.80551 +/- 0.0006
a   1.96054894 +/- 0.00258          Node   121.53626 +/- 0.00011
e   0.6483089 +/- 0.000539          Incl.    4.98583 +/- 0.0032
P   2.75                   H 29.51  G  0.15   U  7.9
q 0.68950753 +/- 0.000151    Q 3.23159034 +/- 0.0053      (J2000 ecliptic)
From 10 observations 2023 Jan. 22-23 (21.2 hr); mean residual 0".17
Residuals in arcseconds: 
230122 F52  .14+  .28-    230122 F52  .11-  .30+    230123 T14  .02+  .02-    
230122 F52  .01+  .01+    230122 F52  .15-  .06+    230123 T14  .03-  .01+    
230122 F52  .20-  .34+    230122 F52  .22+  .11-    
230122 F52  .09+  .32-    230123 T14  .00   .00     

Ephemerides (geocentric):
Date (UTC) HH   RA             Dec           delta  r     elong  mag " sig PA
---- --------  ------------   ------------  ------ ------ -----  --- --------
2023 01 26 06  08 48 09.672   +25 29 13.22  .05252 1.0366 172.4 23.8 1.28 146
2023 01 26 07  08 48 08.650   +25 30 04.19  .05295 1.0371 172.4 23.8 1.29 146
2023 01 26 08  08 48 07.643   +25 30 54.30  .05338 1.0375 172.4 23.8 1.30 146
2023 01 26 09  08 48 06.651   +25 31 43.56  .05381 1.0379 172.4 23.8 1.31 146
2023 01 26 10  08 48 05.674   +25 32 32.01  .05424 1.0384 172.4 23.8 1.32 146
2023 01 26 11  08 48 04.711   +25 33 19.66  .05467 1.0388 172.4 23.9 1.33 146
2023 01 26 12  08 48 03.763   +25 34 06.53  .05510 1.0392 172.4 23.9 1.34 146
2023 01 26 13  08 48 02.828   +25 34 52.63  .05553 1.0397 172.4 23.9 1.35 147
2023 01 26 14  08 48 01.907   +25 35 37.99  .05596 1.0401 172.4 23.9 1.35 147
2023 01 26 15  08 48 00.999   +25 36 22.61  .05639 1.0405 172.4 23.9 1.36 147
2023 01 26 16  08 48 00.105   +25 37 06.52  .05682 1.0410 172.4 23.9 1.37 147
2023 01 26 17  08 47 59.223   +25 37 49.73  .05725 1.0414 172.4 24.0 1.38 147
2023 01 26 18  08 47 58.353   +25 38 32.26  .05768 1.0418 172.4 24.0 1.39 147
2023 01 26 19  08 47 57.496   +25 39 14.12  .05811 1.0423 172.4 24.0 1.40 147
2023 01 26 20  08 47 56.650   +25 39 55.33  .05854 1.0427 172.4 24.0 1.40 147
2023 01 26 21  08 47 55.816   +25 40 35.90  .05897 1.0431 172.4 24.0 1.41 147
2023 01 26 22  08 47 54.994   +25 41 15.84  .05940 1.0435 172.4 24.0 1.42 147
2023 01 26 23  08 47 54.183   +25 41 55.16  .05983 1.0440 172.4 24.1 1.43 147
2023 01 27 00  08 47 53.383   +25 42 33.88  .06026 1.0444 172.4 24.1 1.43 147
2023 01 27 01  08 47 52.593   +25 43 12.02  .06070 1.0448 172.4 24.1 1.44 147
2023 01 27 02  08 47 51.815   +25 43 49.58  .06113 1.0453 172.4 24.1 1.45 147
2023 01 27 03  08 47 51.046   +25 44 26.57  .06156 1.0457 172.4 24.1 1.46 147
2023 01 27 04  08 47 50.288   +25 45 03.02  .06199 1.0461 172.4 24.1 1.46 148
2023 01 27 05  08 47 49.539   +25 45 38.91  .06242 1.0466 172.4 24.2 1.47 148
2023 01 27 06  08 47 48.801   +25 46 14.28  .06285 1.0470 172.4 24.2 1.48 148
2023 01 27 07  08 47 48.072   +25 46 49.13  .06328 1.0474 172.3 24.2 1.48 148
2023 01 27 08  08 47 47.352   +25 47 23.46  .06371 1.0479 172.3 24.2 1.49 148
2023 01 27 09  08 47 46.642   +25 47 57.30  .06415 1.0483 172.3 24.2 1.50 148
2023 01 27 10  08 47 45.941   +25 48 30.64  .06458 1.0487 172.3 24.2 1.50 148
2023 01 27 11  08 47 45.248   +25 49 03.50  .06501 1.0492 172.3 24.3 1.51 148
2023 01 27 12  08 47 44.565   +25 49 35.89  .06544 1.0496 172.3 24.3 1.52 148
2023 01 27 13  08 47 43.889   +25 50 07.81  .06587 1.0500 172.3 24.3 1.52 148
2023 01 27 14  08 47 43.223   +25 50 39.28  .06630 1.0505 172.3 24.3 1.53 148
2023 01 27 15  08 47 42.564   +25 51 10.30  .06674 1.0509 172.3 24.3 1.54 148
2023 01 27 16  08 47 41.914   +25 51 40.89  .06717 1.0513 172.3 24.3 1.54 148
2023 01 27 17  08 47 41.272   +25 52 11.04  .06760 1.0518 172.3 24.3 1.55 148
2023 01 27 18  08 47 40.637   +25 52 40.77  .06803 1.0522 172.3 24.4 1.55 148
2023 01 27 19  08 47 40.011   +25 53 10.09  .06846 1.0526 172.3 24.4 1.56 148
2023 01 27 20  08 47 39.391   +25 53 39.00  .06890 1.0531 172.3 24.4 1.57 148
2023 01 27 21  08 47 38.780   +25 54 07.51  .06933 1.0535 172.3 24.4 1.57 148
2023 01 27 22  08 47 38.175   +25 54 35.62  .06976 1.0539 172.3 24.4 1.58 148
2023 01 27 23  08 47 37.578   +25 55 03.35  .07019 1.0543 172.3 24.4 1.58 148
2023 01 28 00  08 47 36.988   +25 55 30.70  .07063 1.0548 172.2 24.4 1.59 148
2023 01 28 01  08 47 36.405   +25 55 57.68  .07106 1.0552 172.2 24.5 1.59 148
2023 01 28 02  08 47 35.829   +25 56 24.29  .07149 1.0556 172.2 24.5 1.60 149
2023 01 28 03  08 47 35.260   +25 56 50.54  .07192 1.0561 172.2 24.5 1.61 149
2023 01 28 04  08 47 34.697   +25 57 16.44  .07236 1.0565 172.2 24.5 1.61 149
2023 01 28 05  08 47 34.141   +25 57 41.98  .07279 1.0569 172.2 24.5 1.62 149